Regional Weather Roundup
Issued by NWS

Home | Current Version | Previous Version | Text Only | Print | Product List | Glossary On
Versions: 1 2 3 4 5 6 7 8 9 10 11 12 13 14 15 16 17 18 19 20 21 22 23 24 25 26 27 28 29 30 31 32 33 34 35 36 37 38 39 40 41 42 43 44 45 46 47 48 49 50
588
ASUS43 KDTX 171701
RWRMI
MICHIGAN HOURLY REGIONAL WEATHER ROUNDUP
NATIONAL WEATHER SERVICE DETROIT/PONTIAC MI
1200 PM EST FRI NOV 17 2017

NOTE: "FAIR" INDICATES FEW OR NO CLOUDS BELOW 12,000 FEET WITH NO
SIGNIFICANT WEATHER AND/OR OBSTRUCTION TO VISIBILITY.

MIZ047>049-052>055-059>063-066>070-074>076-081>083-171800-
SOUTHEAST LOWER MICHIGAN

CITY           SKY/WX    TMP DP  RH WIND       PRES   REMARKS
ADRIAN         CLOUDY    39  29  67 S15       30.17F WCI  31
ALMA           CLOUDY    36  32  84 SE8       30.11F WCI  30
ANN ARBOR      PTSUNNY   38  29  70 SE12      30.15F WCI  30
BAD AXE        CLOUDY    34  27  75 S9        30.16F WCI  27
CARO           CLOUDY    34  27  77 SE10      30.12F WCI  26
DETROIT CITY   CLOUDY    38  30  73 S9        30.20F WCI  31
DETROIT        CLOUDY    40  30  67 S14       30.19F WCI  32
FLINT          CLOUDY    39  29  67 S14       30.13F WCI  31
GROSSE ILE     CLOUDY    41  32  69 S13       30.19F
HILLSDALE      MOSUNNY   36  30  80 S14G24    30.11F WCI  27
HOWELL         CLOUDY    38  31  77 S12G18    30.13F WCI  30

CITY           SKY/WX    TMP DP  RH WIND       PRES   REMARKS
JACKSON        CLOUDY    39  29  67 SE18G24   30.12F WCI  30
LAMBERTVILLE   MOSUNNY   41  30  64 S7        30.18F
LANSING        CLOUDY    38  30  73 S17       30.11F WCI  28
LAPEER         CLOUDY    37  28  72 SE10G17   30.15F WCI  29
MASON          CLOUDY    39  31  71 SE13G21   30.12F WCI  32
MONROE         CLOUDY    42  30  63 S12       30.18F
PONTIAC        CLOUDY    37  30  75 S12G18    30.15F WCI  29
PORT HOPE        N/A     35  26  69 S7        30.15F WCI  29
PORT HURON     CLOUDY    37  25  60 S7        30.19F WCI  32
TRI CITIES     MOSUNNY   37  30  75 SE12      30.14F WCI  29
MIDLAND        FAIR      36  28  74 SE8       30.12F WCI  29
TROY           CLOUDY    41  31  67 S8        30.20F
SAGINAW HB     CLOUDY    36  30  80 SE8       30.13F WCI  29
$$
MIZ043>046-050>051-056>058-064>065-071>073-077>080-171800-
SOUTHWEST LOWER MICHIGAN

CITY           SKY/WX    TMP DP  RH WIND       PRES   REMARKS
BATTLE CREEK   CLOUDY    40  31  70 S13G20    30.10F WCI  32
BENTON HARBOR  CLOUDY    41  31  67 SE16G24   30.03F
BIG RAPIDS     PTSUNNY   36  29  76 S10       30.03F WCI  28
COLDWATER      CLOUDY    38  31  74 SE13G20   30.11F WCI  30
FREMONT        PTSUNNY   36  32  84 SE10G18   30.03F WCI  28
HOLLAND        CLOUDY    39  31  72 SE12      30.05F WCI  32
GRAND RAPIDS   CLOUDY    39  32  76 SE16      30.07F WCI  30
IONIA          PTSUNNY   38  30  75 SE12      30.08F WCI  30
KALAMAZOO      MOSUNNY   40  30  67 S13G18    30.09F WCI  32
LUDINGTON      CLOUDY    36  31  81 S12       29.99F WCI  28
MARSHALL       CLOUDY    38  30  72 S8G20     30.10F WCI  32
MOUNT PLEASANT MOSUNNY   36  29  75 SE10      30.09F WCI  28
MUSKEGON       CLOUDY    39  30  70 SE14      30.03F WCI  31
SOUTH HAVEN    CLOUDY    41  32  70 SE8G18    30.03F
$$
MIZ016>042-171800-
NORTHERN LOWER MICHIGAN

CITY           SKY/WX    TMP DP  RH WIND       PRES   REMARKS
ALPENA         CLOUDY    34  27  75 S16       30.11F WCI  24
BEAVER ISLAND  CLOUDY    36  32  84 SE8G18    30.01F WCI  30
BELLAIRE       CLOUDY    34  29  83 S14       30.01F WCI  24
CADILLAC       CLOUDY    33  28  82 SE17      29.99F WCI  22
CHARLEVOIX     CLOUDY    33  27  76 SE13G18   30.03F WCI  24
FRANKFORT      MOSUNNY   39  30  71 S12       29.99S WCI  31
GAYLORD        CLOUDY    29  24  82 S17G23    30.02F WCI  17
GRAYLING       PTSUNNY   33  26  76 SE14      30.05F WCI  23
HARBOR SPRINGS CLOUDY    32  25  74 E9        30.01F WCI  24
HOUGHTON LAKE  PTSUNNY   33  26  75 S13G22    30.07F WCI  24
MANISTEE       CLOUDY    37  30  75 SE13      29.98F WCI  29
OSCODA         FLURRIES  33  25  72 S10G16    30.14F WCI  25
PELLSTON       CLOUDY    32  24  72 SE14      30.03F WCI  22
ROGERS CITY    CLOUDY    33  26  77 SE15      30.09F WCI  22
TRAVERSE CITY  CLOUDY    37  28  70 S12G18    29.97F WCI  29
$$
MIZ007>008-015-171800-
EASTERN UPPER MICHIGAN

CITY           SKY/WX    TMP DP  RH WIND       PRES   REMARKS
KINROSS        CLOUDY    31  27  85 SE21G29   30.01F WCI  18
MACKINAC ISLAN CLOUDY    32  24  73 S8G22     30.03F WCI  25
NEWBERRY       CLOUDY    30  29  96 SE12G22   29.99S WCI  21
S. S. MARIE    CLOUDY    33  26  75 SE15G22   30.04F WCI  23
MUNISING         N/A     35  34  96 SE13G20   29.89F WCI  26
$$
MIZ004>006-011>014-085-171800-
CENTRAL UPPER MICHIGAN

CITY           SKY/WX    TMP DP  RH WIND       PRES   REMARKS
MANISTIQUE     CLOUDY    37  32  83 S18G28    29.96F WCI  27
ESCANABA       CLOUDY    40  37  89 S15G30    29.91F WCI  32
MENOMINEE      CLOUDY    42  35  76 S15       29.91F
SAWYER-GWINN   CLOUDY    34  34 100 S18G26    29.86F FOG     WCI  23
$$
MIZ001>003-009>011-084-171800-
WESTERN UPPER MICHIGAN

CITY           SKY/WX    TMP DP  RH WIND       PRES   REMARKS
IRON MOUNTAIN  CLOUDY    35  32  88 S13       29.83F FOG     WCI  26
HOUGHTON       LGT RAIN  34  31  88 S14G22    29.72F WCI  25
COPPER HARBOR    N/A     36  33  89 SW16G32   29.74F WCI  26
IRONWOOD       LGT RAIN N/A N/A N/A S9G22     29.71F
$$

ABBREVIATIONS USED IN REMARKS
   TC - TEMPERATURE IN CELSIUS
  WCI - WIND CHILL INDEX
   HX - HEAT INDEX
  VSB - VISIBILITY





USA.gov is the U.S. government's official web portal to all federal, state and local government web resources and services.